Погода в Немино-3

Россия / Республика Карелия     62°36′58″N   35°48′14″E
темп.,
°C
ветер,
м/с
пор.,
м/с
влажн.,
%
обл.,
%
осадки,
мм/ч
давл.,
гПа
погр.,
м
24 января, пн
пн2400:00−6ююз51193100 0.3 1022454
03:00−6ююз61392100 0.4 1021442
06:00−5ююз61393100 0.2 1021457
09:00−4ююз71494100 0.3 1020508
12:00−2ююз71694100 0.1 1018739
15:00−1ююз71694100 0.3 1016830
18:00−1ююз81693100 0.3 1014945
21:00−1ююз81594100 0.6 1012895
25 января, вт
вт2500:00−1ююз81595100 0.8 1010753
03:00−1ююз71596100 1.8 1008752
06:00−1юз51297100 1.0 1006570
09:000зюз4998100 1.5 1006528
12:00−3зсз3796100 0.2 1007247
15:00−3ссз4993100 0.9 1009625
18:00−8ссз49925 0.0 1012205
21:00−14зсз239735 0.0 101437
26 января, ср
ср2600:00−19сз2210066 0.0 101513
03:00−20сз1110050 0.0 10169
06:00−21сз1110067 0.0 10169
09:00−22ю1110072 0.0 10169
12:00−17ю1110089 0.0 101634
15:00−16ю119975 0.0 101527
18:00−19ююв2210068 0.0 101539
21:00−19ююв2210097 0.0 101413
27 января, чт
чт2700:00−17ююв25100100 0.0 101373
03:00−14ююв3798100 0.1 1012135
06:00−13ююв3895100 0.0 1010164
09:00−13юв3891100 0.0 1009174
12:00−11ююв4108784 0.0 1008290
15:00−9ююв4108586 0.0 1007339
18:00−9ююв51185100 0.0 1005378
21:00−9ююв51187100 0.0 1004473
28 января, пт
пт2800:00−9юв41092100 0.1 1003415
03:00−9юв4994100 0.3 1003425
06:00−10юв3795100 0.4 1002342
09:00−10вюв3695100 0.7 1003254
12:00−10вюв249373 0.2 1003256
15:00−11юв2496100 0.1 1005153
18:00−12вюв1397100 0.0 100549
21:00−10юв2496100 0.2 1006110